#timestamp,LO_Frequency,Hit,StdDev 
1596745655.3,286047033.5,P
1596745675.1,286047033.6,P
1596745695.9,286047035.9,P
1596745715.7,286047035.7,Y
1596745735.6,286047002.5,P
1596745755.4,286047001.5,N
1596745775.2,286047002.1,N
1596745795.1,286047004.1,N
1596745796.0,286047004.1,N
1596745815.8,286047003.1,N
1596745835.7,286047005.6,N
1596745855.5,286047005.3,N
1596745875.3,286047005.8,N
1596745895.2,286047005.2,N
1596745915.0,286047004.5,N
1596745915.9,286047004.5,N
1596745935.7,286047004.6,N
1596745955.6,286047006.1,N
1596745975.4,286047009.0,N
1596745995.3,286047009.0,N
1596746015.1,286047008.6,N
1596746016.0,286047008.6,N
1596746035.8,286047008.9,N
1596746055.7,286047009.1,N
1596746075.5,286047008.3,N
1596746095.3,286047010.1,N
1596746115.2,286047010.2,N
1596746135.0,286047012.0,N
1596746135.9,286047012.0,N
1596746155.8,286047009.5,N
1596746175.6,286047012.4,N
1596746195.4,286047011.6,N
1596746215.3,286047012.3,N
1596746235.1,286047011.7,N
1596746255.9,286047011.4,Y
1596746275.7,286047004.8,P
1596746295.5,286047003.3,N
1596746315.4,286047004.9,N
1596746335.2,286047005.3,Y
1596746355.1,286047002.0,P
1596746356.0,286047002.0,N
1596746375.8,286047001.4,N
1596746395.6,286047004.4,Y
1596746415.5,286046999.7,P
1596746435.3,286047001.6,N
1596746455.2,286047001.9,N
1596746475.9,286047001.8,N
1596746495.7,286047001.4,N
1596746515.6,286047001.4,N
1596746535.4,286047001.3,N
1596746555.3,286047004.0,Y
1596746575.1,286047004.3,P
1596746576.0,286047004.3,P
1596746595.8,286047004.4,P
1596746615.7,286047003.5,N
1596746635.5,286047003.8,Y
1596746655.4,286047000.5,P
1596746675.2,286046999.9,N
1596746695.0,286047002.4,N
1596746695.9,286047002.4,N
1596746715.8,286047000.2,N
1596746735.6,286046999.7,N
1596746755.4,286047002.2,N
1596746775.3,286047001.5,N
1596746795.1,286047004.2,Y
1596746815.9,286047002.5,P
1596746835.7,286046999.8,N
1596746855.5,286047001.9,N
1596746875.4,286047001.6,N
1596746895.2,286047004.1,Y
1596746915.1,286047002.0,P
1596746916.0,286047002.0,P
1596746935.8,286047001.8,P
1596746955.6,286047004.0,Y
1596746975.5,286046999.7,P
1596746995.3,286047002.8,N
1596747015.2,286047001.5,N
1596747035.9,286047001.5,N
1596747055.7,286047003.9,Y
1596747075.6,286047002.6,P
1596747095.4,286047002.4,P
1596747115.2,286047004.4,P
1596747135.1,286047001.8,N
1596747136.0,286047001.8,N
1596747155.8,286047004.3,Y
1596747175.7,286047002.0,P
1596747195.5,286047002.8,P
1596747215.3,286047002.5,P
1596747235.2,286047002.2,Y
1596747255.0,286046998.5,P
1596747255.9,286046998.5,N
1596747275.8,286046998.5,N
1596747295.6,286047000.7,N
1596747315.4,286047000.0,N
1596747335.3,286047000.4,N
1596747355.1,286047001.1,N
1596747375.8,286047002.5,N
1596747395.7,286046999.7,N
1596747415.5,286046999.8,N
1596747435.4,286047002.5,N
1596747455.2,286047004.4,Y
1596747475.0,286047004.3,P
1596747475.9,286047004.3,N
1596747495.8,286047003.2,N
1596747515.6,286047003.2,N
1596747535.5,286047005.4,Y
1596747555.3,286047001.6,P
1596747575.1,286047002.0,N
1596747595.9,286047002.0,P
